When you browse on this site, cookies collect data to enhance your experience and personalize the content and advertising you see.
Visit our Privacy Policy to learn more. By continuing to use the site, you agree to this use of cookies and data.
  • In Hungary
  • List of Countries
  • For 7 days
  • Water Temperature
  • Weather Map
  • News
  • Weather Widgets
  • user-avatar
    Login

    Hourly Weather Innsbruck

    Today, 30 May, Saturday

    Time Temperature Precipitation Wind Pressure Humidity
    00:00 -2°C° 0 mm 1 mps 595 mmHg 90%
    01:00 -2°C° 0 mm 1 mps 595 mmHg 89%
    02:00 -2°C° 0 mm 1 mps 595 mmHg 89%
    03:00 -2°C° 0 mm 1 mps 595 mmHg 88%
    04:00 -2°C° 0 mm 1 mps 594 mmHg 88%
    05:00 0°C° 0 mm 1 mps 595 mmHg 82%
    06:00 +2°C° 0 mm 1 mps 596 mmHg 75%
    07:00 +4°C° 0 mm 1 mps 597 mmHg 69%
    08:00 +5°C° 0 mm 1 mps 597 mmHg 64%
    09:00 +6°C° 0 mm 2 mps 597 mmHg 59%
    10:00 +7°C° 0 mm 2 mps 598 mmHg 54%
    11:00 +7°C° 0 mm 2 mps 598 mmHg 54%
    12:00 +8°C° 0 mm 2 mps 598 mmHg 54%
    13:00 +8°C° 0 mm 2 mps 598 mmHg 54%
    14:00 +7°C° 0.1 mm 3 mps 597 mmHg 57%
    15:00 +7°C° 0.1 mm 3 mps 597 mmHg 60%
    16:00 +7°C° 0.1 mm 3 mps 597 mmHg 63%
    17:00 +6°C° 0.1 mm 2 mps 596 mmHg 71%
    18:00 +4°C° 0.1 mm 2 mps 596 mmHg 78%
    19:00 +3°C° 0.1 mm 2 mps 595 mmHg 86%
    20:00 +2°C° 0.1 mm 2 mps 595 mmHg 90%
    21:00 +2°C° 0.1 mm 1 mps 595 mmHg 93%
    22:00 +1°C° 0.1 mm 1 mps 595 mmHg 97%
    23:00 +1°C° 0 mm 1 mps 595 mmHg 97%

    Tomorrow, 31 May, Sunday

    Time Temperature Precipitation Wind Pressure Humidity
    00:00 +1°C° 0 mm 1 mps 595 mmHg 97%
    01:00 +1°C° 0 mm 1 mps 595 mmHg 96%
    02:00 0°C° 0 mm 1 mps 595 mmHg 96%
    03:00 -1°C° 0 mm 0 mps 595 mmHg 96%
    04:00 -1°C° 0 mm 0 mps 594 mmHg 95%
    05:00 +1°C° 0 mm 1 mps 595 mmHg 91%
    06:00 +2°C° 0 mm 1 mps 595 mmHg 86%
    07:00 +3°C° 0 mm 1 mps 596 mmHg 82%
    08:00 +5°C° 0 mm 1 mps 596 mmHg 76%
    09:00 +6°C° 0 mm 1 mps 597 mmHg 69%
    10:00 +6°C° 0 mm 2 mps 597 mmHg 63%
    11:00 +7°C° 0 mm 2 mps 597 mmHg 61%
    12:00 +7°C° 0 mm 2 mps 597 mmHg 59%
    13:00 +8°C° 0 mm 2 mps 597 mmHg 56%
    14:00 +8°C° 0 mm 2 mps 597 mmHg 54%
    15:00 +8°C° 0 mm 2 mps 598 mmHg 52%
    16:00 +9°C° 0 mm 3 mps 598 mmHg 50%
    17:00 +7°C° 0 mm 2 mps 597 mmHg 57%
    18:00 +6°C° 0 mm 2 mps 597 mmHg 64%
    19:00 +5°C° 0 mm 2 mps 597 mmHg 71%
    20:00 +3°C° 0 mm 2 mps 596 mmHg 78%
    21:00 +2°C° 0 mm 1 mps 596 mmHg 86%
    22:00 +1°C° 0 mm 1 mps 595 mmHg 94%
    23:00 0°C° 0 mm 1 mps 595 mmHg 93%

    Day after tomorrow, 1 June, Monday

    Time Temperature Precipitation Wind Pressure Humidity
    00:00 0°C° 0 mm 1 mps 595 mmHg 92%
    01:00 0°C° 0 mm 1 mps 595 mmHg 91%
    02:00 -1°C° 0 mm 1 mps 595 mmHg 89%
    03:00 -1°C° 0 mm 1 mps 594 mmHg 87%
    04:00 -1°C° 0 mm 1 mps 594 mmHg 85%
    05:00 +1°C° 0 mm 1 mps 595 mmHg 78%
    06:00 +4°C° 0 mm 1 mps 596 mmHg 70%
    07:00 +6°C° 0 mm 1 mps 597 mmHg 62%
    08:00 +8°C° 0 mm 1 mps 598 mmHg 58%
    09:00 +9°C° 0 mm 1 mps 599 mmHg 53%
    10:00 +10°C° 0 mm 2 mps 599 mmHg 48%
    11:00 +12°C° 0 mm 2 mps 599 mmHg 47%
    12:00 +13°C° 0 mm 2 mps 600 mmHg 45%
    13:00 +13°C° 0 mm 3 mps 600 mmHg 43%
    14:00 +13°C° 0 mm 3 mps 600 mmHg 45%
    15:00 +12°C° 0 mm 3 mps 600 mmHg 47%
    16:00 +12°C° 0 mm 3 mps 599 mmHg 49%
    17:00 +12°C° 0 mm 2 mps 599 mmHg 58%
    18:00 +9°C° 0 mm 2 mps 598 mmHg 67%
    19:00 +8°C° 0 mm 2 mps 598 mmHg 77%
    20:00 +7°C° 0 mm 1 mps 597 mmHg 83%
    21:00 +5°C° 0 mm 1 mps 596 mmHg 90%
    22:00 +3°C° 0 mm 1 mps 596 mmHg 97%
    23:00 +2°C° 0 mm 1 mps 595 mmHg 96%

    2 June, Tuesday

    Time Temperature Precipitation Wind Pressure Humidity
    00:00 +2°C° 0 mm 1 mps 595 mmHg 96%
    01:00 +1°C° 0 mm 0 mps 595 mmHg 96%
    02:00 0°C° 0 mm 0 mps 595 mmHg 95%
    03:00 0°C° 0 mm 0 mps 594 mmHg 95%
    04:00 0°C° 0 mm 0 mps 594 mmHg 94%
    05:00 +3°C° 0 mm 1 mps 595 mmHg 87%
    06:00 +5°C° 0 mm 1 mps 596 mmHg 80%
    07:00 +8°C° 0 mm 1 mps 597 mmHg 73%
    08:00 +9°C° 0 mm 1 mps 598 mmHg 63%
    09:00 +10°C° 0 mm 2 mps 599 mmHg 52%
    10:00 +12°C° 0 mm 2 mps 599 mmHg 42%
    11:00 +13°C° 0 mm 2 mps 599 mmHg 40%
    12:00 +13°C° 0 mm 3 mps 599 mmHg 39%
    13:00 +13°C° 0 mm 3 mps 599 mmHg 37%
    14:00 +13°C° 0 mm 3 mps 599 mmHg 39%
    15:00 +13°C° 0 mm 3 mps 598 mmHg 41%
    16:00 +13°C° 0 mm 3 mps 598 mmHg 43%
    17:00 +11°C° 0.1 mm 3 mps 597 mmHg 51%
    18:00 +10°C° 0.1 mm 2 mps 597 mmHg 60%
    19:00 +8°C° 0.1 mm 2 mps 596 mmHg 69%
    20:00 +6°C° 0 mm 2 mps 595 mmHg 77%
    21:00 +5°C° 0 mm 1 mps 594 mmHg 85%
    22:00 +2°C° 0 mm 1 mps 593 mmHg 93%
    23:00 +2°C° 0 mm 1 mps 593 mmHg 92%

    3 June, Wednesday

    Time Temperature Precipitation Wind Pressure Humidity
    00:00 +2°C° 0 mm 1 mps 592 mmHg 92%
    01:00 +1°C° 0 mm 1 mps 592 mmHg 91%
    02:00 +1°C° 0 mm 1 mps 592 mmHg 90%
    03:00 +1°C° 0 mm 1 mps 591 mmHg 88%
    04:00 +1°C° 0 mm 1 mps 591 mmHg 86%
    05:00 +3°C° 0 mm 1 mps 592 mmHg 76%
    06:00 +6°C° 0 mm 1 mps 593 mmHg 66%
    07:00 +8°C° 0 mm 1 mps 594 mmHg 56%
    08:00 +10°C° 0 mm 1 mps 594 mmHg 49%
    09:00 +12°C° 0 mm 1 mps 595 mmHg 42%
    10:00 +13°C° 0 mm 2 mps 595 mmHg 35%
    11:00 +14°C° 0 mm 2 mps 595 mmHg 34%
    12:00 +15°C° 0 mm 2 mps 595 mmHg 32%
    13:00 +16°C° 0 mm 2 mps 595 mmHg 31%
    14:00 +16°C° 0 mm 2 mps 595 mmHg 32%
    15:00 +15°C° 0 mm 2 mps 594 mmHg 34%
    16:00 +15°C° 0 mm 2 mps 594 mmHg 36%
    17:00 +14°C° 0.1 mm 2 mps 593 mmHg 46%
    18:00 +12°C° 0.1 mm 2 mps 593 mmHg 56%
    19:00 +11°C° 0.1 mm 1 mps 592 mmHg 67%
    20:00 +9°C° 0 mm 1 mps 591 mmHg 73%
    21:00 +7°C° 0 mm 1 mps 591 mmHg 79%
    22:00 +5°C° 0 mm 1 mps 590 mmHg 85%
    23:00 +5°C° 0 mm 1 mps 590 mmHg 84%

    4 June, Thursday

    Time Temperature Precipitation Wind Pressure Humidity
    00:00 +4°C° 0 mm 2 mps 590 mmHg 84%
    01:00 +4°C° 0 mm 2 mps 590 mmHg 84%
    02:00 +4°C° 0 mm 2 mps 589 mmHg 85%
    03:00 +4°C° 0 mm 2 mps 589 mmHg 87%
    04:00 +4°C° 0 mm 2 mps 589 mmHg 88%
    05:00 +5°C° 0 mm 2 mps 590 mmHg 83%
    06:00 +7°C° 0 mm 2 mps 590 mmHg 78%
    07:00 +8°C° 0 mm 2 mps 591 mmHg 73%
    08:00 +10°C° 0 mm 2 mps 592 mmHg 65%
    09:00 +13°C° 0 mm 2 mps 592 mmHg 58%
    10:00 +15°C° 0 mm 2 mps 593 mmHg 51%
    11:00 +15°C° 0 mm 2 mps 593 mmHg 49%
    12:00 +16°C° 0 mm 2 mps 593 mmHg 47%
    13:00 +16°C° 0 mm 2 mps 593 mmHg 46%
    14:00 +15°C° 0.3 mm 2 mps 592 mmHg 54%
    15:00 +14°C° 0.3 mm 2 mps 592 mmHg 62%
    16:00 +13°C° 0.3 mm 2 mps 591 mmHg 70%
    17:00 +10°C° 0.9 mm 2 mps 591 mmHg 78%
    18:00 +9°C° 0.9 mm 2 mps 591 mmHg 85%
    19:00 +9°C° 0.9 mm 1 mps 591 mmHg 92%
    20:00 +9°C° 0.4 mm 1 mps 591 mmHg 93%
    21:00 +8°C° 0.4 mm 1 mps 591 mmHg 94%
    22:00 +8°C° 0.4 mm 1 mps 591 mmHg 95%
    23:00 +6°C° 0 mm 2 mps 590 mmHg 95%
    Show more